Epoch 2024 Mar. 31.0 TT = JDT 2460400.5 T 2026 Aug. 2.14737 TT Rudenko q 1.4160714 (2000.0) P Q n 0.18389389 Peri. 195.52491 +0.68106132 +0.70863948 a 3.0626064 Node 117.80992 -0.64766143 +0.70045595 e 0.5376254 Incl. 12.03005 -0.34159938 +0.08480296 P 5.36 >From 4629 observations 2003 Mar. 7-2024 Feb. 18, mean residual 0".6. Nongravitational parameters A1 = +0.02, A2 = +0.0006.
H = 13.6 G = 0.15 [ ,-172] ( - 2026 Feb. 11) m1 = 4.6 + 5 log d + 35 log r [-172, 0] (2026 Feb. 11 - 2026 Aug. 2) m1 = 7.2 + 5 log d + 18 log r [ 0, 405] (2026 Aug. 2 - 2027 Sept.11) H = 13.6 G = 0.15 [ 405, ] (2027 Sept.11 - )